SL-16 DEB

Satellite information

Favourite Embed

Satellite Type and Status

DEBRISIN ORBIT

Key statistics

Satellite SL-16 DEB at a glance.

Uptime

11287

Days in orbit

Revolutions

≈ 13.7

Per day

Orbit

LEO

Low Earth Orbit

Inclination

71.0

Latest

Satellite identification and parameters

Extended collection of information and parameters for SL-16 DEB.

Object identification

Identified? True

Debris? True

Object name: SL-16 DEB

International designator: 1994-077C

Object number (NORAD): 23406

Object ID (CCSDS): 23406

Country: COMMONWEALTH OF INDEPENDENT STATES (CIS)

Current information (Y/N): Y

RCS size: SMALL

Orbital parameters

Period: 104.851 minutes

Inclination: 71.0303 deg

SMA: 7365.586 km

Apoapsis: 1137.125 km

Periapsis: 837.777 km

RAAN: 163.5399 deg

Eccentricy: 0.02032075

Argument of periapsis: 261.8541 deg

Mean anomaly: 116.6691 deg

Mean motion: 13.73383515 rev/day

Mean motion (dot): 0.00000092 rev/day2

B* drag term: 0.0001259809 1/REarth

Two-line elements (TLE)

Creation date: Oct. 19, 2025, 2:20 a.m.

Reference frame: TEME

Reference center: EARTH

Epoch: Oct. 18, 2025, 10:05 p.m. UTC

TLE line 0: 0 SL-16 DEB

TLE line 1: 1 23406U 94077C 25291.92023101 .00000092 00000-0 12598-3 0 9998

TLE line 2: 2 23406 71.0303 163.5399 0203207 261.8541 116.6691 13.73383515548004

Live tracking on map

Real-time ground track for satellite SL-16 DEB.

In-orbit conjunctions

A list of the most updated potential collisions computed for object SL-16 DEB.

Target Orbit TCA Probability of collision Miss distance Type
FENGYUN 1C DEB SSO 2025-02-07 03:21:03 0.001089095 29.0 (m) DEBRIS

Associated space launch

Second generation ELING satellite

SL-16 DEB was lifted into orbit during the mission ‘Zenit-2 | Tselina-2 16’, on board a Zenit-2 space rocket.

The launch took place on Nov. 24, 1994, 9:15 a.m. from 45/1.

For more information about the launch, click the button.

Launch to space Zenit-2 | Tselina-2 16
Zenit-2 | Tselina-2 16

Agency: N/A

Status: Launch Successful

Launch date: Nov. 24, 1994, 9:15 a.m. UTC

Rocket: Zenit-2

Launch pad: 45/1

Location: Baikonur Cosmodrome, Republic of Kazakhstan

...

Latest news about this satellite

There are no fresh news available about this satellite. Check back as we update our databases every day.


Newsletter sign-up

Weekly statistics, charts and insights to help you stay on top of the space industry.